GORIZONT 1 1 11158U 78118A 24288.22750305 .00000052 00000-0 00000-0 0 9996 2 11158 11.5931 173.4219 3211582 327.6050 16.4356 1.00274059116810 GORIZONT 2 1 11440U 79062A 24289.63532764 .00000022 00000-0 00000-0 0 9999 2 11440 7.2446 292.2261 0005347 307.7247 74.1022 1.00284218131915 GORIZONT 3 1 11648U 79105A 24289.63237372 .00000107 00000-0 00000-0 0 9998 2 11648 7.4222 293.8859 0013011 245.9521 118.6553 1.00314137116374 GORIZONT 4 1 11841U 80049A 24289.83228866 -.00000233 00000-0 00000+0 0 9992 2 11841 8.6298 300.5459 0002678 309.2376 48.1192 0.98631683227548 GORIZONT 5 1 13092U 82020A 24289.83033957 -.00000138 00000-0 00000-0 0 9993 2 13092 9.7154 306.1547 0034424 238.9131 252.3430 0.98532108115599 GORIZONT 6 1 13624U 82103A 24289.83002977 -.00000280 00000-0 00000-0 0 9992 2 13624 8.6739 306.4643 0002035 280.5949 58.1123 1.00236192114835 GORIZONT 7 1 14160U 83066A 24290.10562133 -.00000042 00000-0 00000+0 0 9999 2 14160 10.5140 316.6035 0011430 327.3293 48.7742 0.98347040148805 GORIZONT 8 1 14532U 83118A 24290.03881031 -.00000112 00000-0 00000+0 0 9991 2 14532 10.7351 318.5968 0028740 172.6072 201.9677 0.98269948114553 GORIZONT 9 1 14940U 84041A 24289.85043477 -.00000209 00000-0 00000-0 0 9990 2 14940 9.9083 316.4234 0005864 254.0932 206.3341 1.00228877115832 GORIZONT 10 1 15144U 84078A 24289.05223054 -.00000256 00000-0 00000-0 0 9992 2 15144 10.0316 317.4578 0002162 278.9673 133.5688 1.00281360148464 GORIZONT 11 1 15484U 85007A 24288.96797823 .00000073 00000-0 00000-0 0 9997 2 15484 10.2589 319.5762 0004216 217.4256 213.0785 1.00212340146518 GORIZONT 12 1 16769U 86044A 24289.85063497 -.00000193 00000-0 00000-0 0 9992 2 16769 11.0267 325.1181 0004020 266.3059 184.2356 1.00199812141158 GORIZONT 13 1 17083U 86090A 24290.13655076 -.00000065 00000-0 00000+0 0 9993 2 17083 13.0814 332.6676 0013221 343.8569 182.9685 0.96725576112772 GORIZONT 14 1 17969U 87040A 24289.60335565 -.00000053 00000-0 00000-0 0 9998 2 17969 11.7703 323.7168 0031333 198.5462 339.8378 0.97658064113901 GORIZONT 15 1 19017U 88028A 24289.53773772 -.00000195 00000-0 00000-0 0 9996 2 19017 13.4713 335.2208 0037154 181.2272 210.7241 0.97828963113548 GORIZONT 16 1 19397U 88071A 24289.36646517 -.00000093 00000-0 00000-0 0 9999 2 19397 12.3044 333.9073 0010876 83.9851 269.5004 0.99989998132135 GORIZONT 17 1 19765U 89004A 24289.83776212 -.00000186 00000-0 00000+0 0 9995 2 19765 12.9530 337.3775 0022276 159.6115 190.1050 0.99068943129536 GORIZONT 18 1 20107U 89052A 24288.17148986 .00000017 00000-0 00000-0 0 9990 2 20107 13.0435 338.5973 0034362 331.8501 25.2792 0.99397807128331 GORIZONT 19 1 20263U 89081A 24286.77030465 .00000132 00000-0 00000-0 0 9999 2 20263 12.7526 337.6991 0005688 236.7991 121.3419 1.00295303 41199 GORIZONT 20 1 20659U 90054A 24289.82160628 -.00000302 00000-0 00000-0 0 9994 2 20659 13.2809 340.3950 0007692 209.1069 228.1284 1.00274597125585 GORIZONT 21 1 20923U 90094A 24289.71091101 .00000000 00000-0 00000-0 0 9993 2 20923 13.3210 341.1354 0007591 234.7842 124.8158 1.00390967124338 GORIZONT 22 1 20953U 90102A 24288.90887090 .00000001 00000-0 00000-0 0 9997 2 20953 13.2939 341.5799 0001821 317.7868 55.3543 1.00290088124255 GORIZONT 23 1 21533U 91046A 24289.82269793 -.00000085 00000-0 00000-0 0 9999 2 21533 14.1938 345.8090 0005491 295.1646 139.1472 0.98907240 40665 GORIZONT 24 1 21759U 91074A 24289.04266670 -.00000188 00000-0 00000-0 0 9999 2 21759 14.4185 347.8132 0021395 245.2391 123.4866 0.98444641118957 GORIZONT 25 1 21922U 92017A 24289.17654937 -.00000155 00000-0 00000-0 0 9994 2 21922 13.9413 346.9909 0026163 105.7428 266.9438 0.99844867118850 GORIZONT 26 1 22041U 92043A 24289.31855087 .00000055 00000-0 00000-0 0 9999 2 22041 14.1847 349.1130 0034818 253.4917 119.2375 0.99242353117422 GORIZONT 27 1 22245U 92082A 24289.43243751 .00000000 00000-0 00000-0 0 9990 2 22245 14.0883 348.4846 0009229 17.6383 351.8349 1.00217277121013 GORIZONT 28 1 22880U 93069A 24288.10719838 -.00000209 00000-0 00000-0 0 9990 2 22880 14.3721 352.4904 0034437 158.0700 198.5266 0.99650882113031 GORIZONT 29 1 22907U 93072A 24288.95813032 -.00000105 00000-0 00000-0 0 9993 2 22907 14.2634 351.8501 0008105 344.9822 24.5767 1.00163342113063 GORIZONT 30 1 23108U 94030A 24288.95813032 -.00000091 00000-0 00000-0 0 9996 2 23108 14.3093 352.7376 0004980 230.4471 137.7994 1.00261856111340 GORIZONT 31 1 23775U 96005A 24290.19961258 -.00000056 00000-0 00000+0 0 9993 2 23775 14.4581 359.0950 0021821 224.8765 127.3637 0.99883354104966 GORIZONT 32 1 23880U 96034A 24288.97559505 -.00000191 00000-0 00000-0 0 9994 2 23880 14.4256 359.5524 0006190 351.2936 3.5283 1.00207534103910 GORIZONT 33 1 26372U 00029A 24289.83087769 -.00000376 00000-0 00000-0 0 9991 2 26372 13.5688 11.1818 0002961 200.8380 228.8354 1.00357484 89328